Погода в Веселом

Украина / Днепропетровская область     48°13′57″N   36°36′38″E
темп.,
°C
ветер,
м/с
пор.,
м/с
влажн.,
%
обл.,
%
осадки,
мм/ч
давл.,
гПа
погр.,
м
27 октября, ср
ср2700:00+1ю34515 0.0 103252
03:000ююв33575 0.0 103140
06:000ююв33593 0.0 103035
09:00+3ююв35490 0.0 1030180
12:00+9ю34300 0.0 1028695
15:00+11юз23230 0.0 1025950
18:00+7зюз22320 0.0 102510
21:00+5з22390 0.0 102510
28 октября, чт
чт2800:00+4з22520 0.0 102510
03:00+3з2260100 0.0 102512
06:00+2з2268100 0.0 102510
09:00+5зюз2367100 0.0 1025114
12:00+10з3558100 0.0 1024464
15:00+12з465082 0.0 1022668
18:00+10юз3555100 0.0 1022103
21:00+10юз3660100 0.1 1022156
29 октября, пт
пт2900:00+10з376589 0.0 1022205
03:00+8сз368714 0.1 1023160
06:00+6с35955 0.0 102481
09:00+9с35865 0.0 1026208
12:00+13ссв34637 0.0 1026812
15:00+15св445029 0.0 10271411
18:00+10всв456458 0.0 102982
21:00+9в34630 0.0 103054
30 октября, сб
сб3000:00+8в33690 0.0 103132
03:00+6в35840 0.0 103171
06:00+5вюв34881 0.0 103264
09:00+8в46735 0.0 1033230
12:00+12в45508 0.0 1033954
15:00+14в45428 0.0 10311111
18:00+9в36500 0.0 103277
21:00+7в37610 0.0 1033109
31 октября, вс
вс3100:00+5в37700 0.0 1033113
03:00+5в36830 0.0 103295
05:00+4в47840 0.0 1032117
08:00+7в510700 0.0 1032301
11:00+13вюв68460 0.0 1030890
14:00+14вюв67420 0.0 10281131
17:00+10вюв47560 0.0 1028121
20:00+7в49650 0.0 1027157